Location: Banios
(43.0451°N, 0.2335°E)
Time: 04:59:59
(UTC+00:00)

N. Korean satellite - Pass Details

Date: 02 December 2021
Orbit: 447 x 491 km, 97.3° (Epoch: 25 January)

Event Time Altitude Azimuth Distance (km) Brightness Sun altitude
Rises 05:46:46 0° 3° (N) 2,470 10.0 -15.1°
Reaches altitude 10° 05:48:55 10° 354° (N) 1,588 8.9 -14.7°
Maximum altitude 05:52:01 34° 288° (WNW) 766 7.0 -14.2°
Drops below altitude 10° 05:55:05 10° 222° (SW) 1,569 8.9 -13.7°
Sets 05:57:12 0° 213° (SSW) 2,436 10.0 -13.3°
